Garden City, KS

10:57 PM CDT on July 26, 2017 (GMT -0500)
Garden City Regional

Weather History for KGCK - June, 2013

Change the Weather History Date:

Tuesday, June 11, 2013

  Actual Average Record
Temperature  
Mean Temperature 92 °F 72 °F  
Max Temperature 108 °F 85 °F 108 °F (2013)
Min Temperature 76 °F 59 °F 43 °F (1995)
Degree Days  
Heating Degree Days 0 1  
Month to date heating degree days 12 12  
Since 1 June heating degree days 12 12  
Since 1 July heating degree days 5211 5203  
Cooling Degree Days 27 7  
Month to date cooling degree days 88 66  
Year to date cooling degree days 235 155  
Since 1 June cooling degree days 88 66  
Growing Degree Days 42 (Base 50)    
Moisture  
Dew Point 47 °F    
Average Humidity 25    
Maximum Humidity 38    
Minimum Humidity 11    
Precipitation  
Precipitation 0.00 in 0.12 in 2.15 in (1960)
Month to date precipitation 0.34 1.24  
Year to date precipitation 1.91 8.18  
Sea Level Pressure  
Sea Level Pressure 29.65 in    
Wind  
Wind Speed 26 mph (SSW)    
Max Wind Speed 39 mph    
Max Gust Speed 51 mph    
Visibility 10 miles    
Events      
T = Trace of Precipitation, MM = Missing Value Source: NWS Daily Summary

Daily Weather History Graph

Daily Weather History Graph

Search for Another Location

Airport or City:

Trip Planner

Search our weather history database for the weather conditions in past years. The results will help you decide how hot, cold, wet, or windy it might be!

Date:

Astronomy

Jun. 11, 2013 Rise Set
Actual Time 6:19 AM CDT 9:05 PM CDT
Civil Twilight 5:48 AM CDT 9:36 PM CDT
Nautical Twilight 5:09 AM CDT 10:15 PM CDT
Astronomical Twilight 4:25 AM CDT 11:00 PM CDT
Moon 9:02 AM CDT (6/11) 11:11 PM CDT (6/11)
Length of Visible Light 15h 48m
Length of Day
14h 45m
Waxing Crescent, 8% of the Moon is Illuminated
Jun 11
Waxing Crescent
Jun 16
First Quarter
Jun 23
Full
Jun 29
Last Quarter
Jul 8
New

Hourly Weather History & Observations

Time (CDT) Temp. Dew Point Humidity Pressure Visibility Wind Dir Wind Speed Gust Speed Precip Events Conditions
12:54 AM 82.9 °F 50.0 °F 32% 29.68 in 10.0 mi South 19.6 mph - N/A   Clear
1:54 AM 82.0 °F 50.0 °F 33% 29.69 in 10.0 mi South 23.0 mph - N/A   Clear
2:54 AM 80.1 °F 50.0 °F 35% 29.70 in 10.0 mi SSW 19.6 mph 27.6 mph N/A   Clear
3:54 AM 79.0 °F 48.9 °F 35% 29.70 in 10.0 mi SSW 21.9 mph 28.8 mph N/A   Clear
4:54 AM 77.0 °F 48.9 °F 37% 29.69 in 10.0 mi SSW 23.0 mph 33.4 mph N/A   Clear
5:54 AM 77.0 °F 48.9 °F 37% 29.70 in 10.0 mi SSW 20.7 mph - N/A   Clear
6:54 AM 75.9 °F 48.9 °F 38% 29.71 in 10.0 mi SSW 24.2 mph 29.9 mph N/A   Clear
7:54 AM 79.0 °F 48.9 °F 35% 29.71 in 10.0 mi SSW 26.5 mph 33.4 mph N/A   Clear
8:54 AM 84.0 °F 48.9 °F 29% 29.72 in 10.0 mi SW 26.5 mph 32.2 mph N/A   Clear
9:54 AM 89.1 °F 48.9 °F 25% 29.71 in 10.0 mi SSW 24.2 mph 33.4 mph N/A   Clear
10:54 AM 95.0 °F 46.9 °F 19% 29.68 in 10.0 mi SSW 27.6 mph 38.0 mph N/A   Clear
11:54 AM 100.9 °F 45.0 °F 15% 29.67 in 10.0 mi SW 29.9 mph 42.6 mph N/A   Clear
12:54 PM 104.0 °F 44.1 °F 13% 29.66 in 10.0 mi SSW 32.2 mph 41.4 mph N/A   Clear
1:54 PM 105.1 °F 43.0 °F 12% 29.65 in 10.0 mi SSW 27.6 mph 40.3 mph N/A   Clear
2:54 PM 106.0 °F 43.0 °F 12% 29.63 in 10.0 mi South 32.2 mph 40.3 mph N/A   Clear
3:54 PM 108.0 °F 42.1 °F 11% 29.61 in 10.0 mi SSW 29.9 mph 40.3 mph N/A   Clear
4:54 PM 107.1 °F 45.0 °F 12% 29.59 in 10.0 mi South 33.4 mph 46.0 mph N/A   Clear
5:54 PM 105.1 °F 46.9 °F 14% 29.57 in 10.0 mi South 36.8 mph 47.2 mph N/A   Clear
6:54 PM 102.9 °F 48.0 °F 16% 29.56 in 10.0 mi South 35.7 mph 43.7 mph N/A   Clear
7:54 PM 99.0 °F 46.9 °F 17% 29.57 in 10.0 mi South 32.2 mph 43.7 mph N/A   Clear
8:54 PM 93.0 °F 46.9 °F 20% 29.58 in 10.0 mi South 21.9 mph - N/A   Clear
9:54 PM 88.0 °F 46.9 °F 24% 29.60 in 10.0 mi South 20.7 mph 28.8 mph N/A   Clear
10:54 PM 84.9 °F 48.0 °F 28% 29.62 in 10.0 mi South 21.9 mph - N/A   Clear
11:54 PM 82.9 °F 48.9 °F 31% 29.65 in 10.0 mi South 19.6 mph 27.6 mph N/A   Clear